Zapata, TX

9:17 PM CDT on August 17, 2017 (GMT -0500)
Zapata

Weather History for KAPY - June, 2013

Change the Weather History Date:

Saturday, June 29, 2013

  Actual Average (KLRD) Record (KLRD)
Temperature  
Mean Temperature 90 °F -  
Max Temperature 107 °F 95 °F 110 °F (2013)
Min Temperature 74 °F 74 °F 61 °F (1912)
Cooling Degree Days 26    
Growing Degree Days 40 (Base 50)    
Moisture  
Dew Point 59 °F    
Average Humidity 40    
Maximum Humidity 80    
Minimum Humidity 12    
Precipitation  
Precipitation 0.00 in - - ()
Sea Level Pressure  
Sea Level Pressure 29.82 in    
Wind  
Wind Speed 6 mph (SE)    
Max Wind Speed 14 mph    
Max Gust Speed 22 mph    
Visibility 10 miles    
Events      
Averages and records for this station are not official NWS values.
T = Trace of Precipitation, MM = Missing Value Source: NWS Daily Summary

Daily Weather History Graph

Daily Weather History Graph

Search for Another Location

Airport or City:

Trip Planner

Search our weather history database for the weather conditions in past years. The results will help you decide how hot, cold, wet, or windy it might be!

Date:

Astronomy

Jun. 29, 2013 Rise Set
Actual Time 6:45 AM CDT 8:35 PM CDT
Civil Twilight 6:19 AM CDT 9:01 PM CDT
Nautical Twilight 5:47 AM CDT 9:33 PM CDT
Astronomical Twilight 5:14 AM CDT 10:06 PM CDT
Moon 12:42 AM CDT (6/29) 1:18 PM CDT (6/29)
Length of Visible Light 14h 41m
Length of Day
13h 49m
Waning Gibbous, 55% of the Moon is Illuminated
Jun 29
Waning Gibbous
Jun 29
Last Quarter
Jul 8
New
Jul 15
First Quarter
Jul 22
Full

Hourly Weather History & Observations

Time (CDT) Temp. Heat Index Dew Point Humidity Pressure Visibility Wind Dir Wind Speed Gust Speed Precip Events Conditions
12:15 AM 86.7 °F 87.8 °F 63.5 °F 46% 29.86 in 10.0 mi SE 13.8 mph 18.4 mph N/A   Clear
12:35 AM 85.6 °F 86.6 °F 63.5 °F 47% 29.86 in 10.0 mi SE 8.1 mph - N/A   Clear
12:55 AM 85.1 °F 86.1 °F 63.5 °F 48% 29.86 in 10.0 mi SE 8.1 mph - N/A   Clear
1:15 AM 84.2 °F 85.4 °F 63.5 °F 50% 29.86 in 10.0 mi SE 6.9 mph - N/A   Clear
1:35 AM 83.3 °F 84.4 °F 63.7 °F 51% 29.86 in 10.0 mi SE 5.8 mph - N/A   Clear
1:55 AM 82.6 °F 84.1 °F 64.2 °F 54% 29.85 in 10.0 mi SE 9.2 mph - N/A   Clear
2:15 AM 82.2 °F 83.8 °F 64.8 °F 55% 29.85 in 10.0 mi SE 8.1 mph - N/A   Clear
2:35 AM 81.3 °F 83.2 °F 65.3 °F 58% 29.85 in 10.0 mi SE 6.9 mph - N/A   Clear
2:55 AM 80.8 °F 82.8 °F 65.7 °F 60% 29.85 in 10.0 mi SE 5.8 mph - N/A   Clear
3:15 AM 80.2 °F 82.3 °F 66.0 °F 62% 29.85 in 10.0 mi SE 5.8 mph - N/A   Clear
3:35 AM 79.7 °F - 66.2 °F 63% 29.85 in 10.0 mi SE 4.6 mph - N/A   Clear
3:55 AM 78.8 °F - 66.6 °F 66% 29.85 in 10.0 mi SE 3.5 mph - N/A   Clear
4:15 AM 77.9 °F - 66.7 °F 68% 29.86 in 10.0 mi SE 3.5 mph - N/A   Clear
4:35 AM 77.4 °F - 67.1 °F 71% 29.86 in 10.0 mi SE 3.5 mph - N/A   Clear
4:55 AM 77.0 °F - 67.1 °F 71% 29.85 in 10.0 mi SE 3.5 mph - N/A   Clear
5:15 AM 76.6 °F - 67.3 °F 73% 29.85 in 10.0 mi SE 3.5 mph - N/A   Clear
5:35 AM 76.1 °F - 67.5 °F 74% 29.85 in 10.0 mi Calm Calm - N/A   Clear
5:55 AM 75.6 °F - 67.5 °F 76% 29.85 in 10.0 mi SE 3.5 mph - N/A   Clear
6:15 AM 75.2 °F - 67.6 °F 77% 29.85 in 10.0 mi Calm Calm - N/A   Clear
6:35 AM 74.7 °F - 67.6 °F 79% 29.85 in 10.0 mi SE 3.5 mph - N/A   Clear
6:55 AM 74.7 °F - 68.0 °F 80% 29.86 in 10.0 mi Calm Calm - N/A   Clear
7:15 AM 75.2 °F - 68.2 °F 79% 29.86 in 10.0 mi Calm Calm - N/A   Clear
7:35 AM 76.6 °F - 68.5 °F 76% 29.86 in 10.0 mi Calm Calm - N/A   Clear
7:55 AM 78.6 °F - 69.3 °F 73% 29.87 in 10.0 mi Calm Calm - N/A   Clear
8:15 AM 79.7 °F - 69.6 °F 71% 29.87 in 10.0 mi SE 4.6 mph - N/A   Clear
8:35 AM 81.3 °F 84.8 °F 70.0 °F 68% 29.87 in 10.0 mi Calm Calm - N/A   Clear
8:55 AM 82.6 °F 86.4 °F 69.8 °F 65% 29.87 in 10.0 mi SE 4.6 mph - N/A   Clear
9:15 AM 82.9 °F 86.7 °F 69.6 °F 64% 29.88 in 10.0 mi Calm Calm - N/A   Clear
9:35 AM 84.2 °F 88.1 °F 69.6 °F 61% 29.88 in 10.0 mi SSW 3.5 mph - N/A   Clear
9:55 AM 85.3 °F 89.4 °F 69.4 °F 59% 29.87 in 10.0 mi Calm Calm - N/A   Clear
10:15 AM 87.1 °F 90.6 °F 68.2 °F 53% 29.87 in 10.0 mi Calm Calm - N/A   Clear
10:35 AM 89.8 °F 93.3 °F 67.8 °F 48% 29.87 in 10.0 mi Calm Calm - N/A   Clear
10:55 AM 91.8 °F 94.2 °F 65.5 °F 42% 29.87 in 10.0 mi Calm Calm - N/A   Clear
11:15 AM 93.9 °F 94.4 °F 61.9 °F 34% 29.86 in 10.0 mi Calm Calm - N/A   Clear
11:35 AM 95.9 °F 95.3 °F 58.6 °F 29% 29.86 in 10.0 mi SE 5.8 mph - N/A   Clear
11:55 AM 96.8 °F 96.2 °F 58.8 °F 28% 29.85 in 10.0 mi SSE 4.6 mph - N/A   Clear
12:15 PM 98.4 °F 97.3 °F 56.8 °F 25% 29.85 in 10.0 mi Calm Calm - N/A   Clear
12:35 PM 99.1 °F 97.9 °F 56.3 °F 24% 29.85 in 10.0 mi West 4.6 mph - N/A   Clear
12:55 PM 99.5 °F 98.0 °F 55.9 °F 23% 29.84 in 10.0 mi SSE 3.5 mph - N/A   Clear
1:15 PM 102.0 °F 100.1 °F 53.2 °F 20% 29.84 in 10.0 mi SE 4.6 mph - N/A   Clear
1:35 PM 101.7 °F - 52.0 °F 19% 29.83 in 10.0 mi SSE 3.5 mph - N/A   Clear
1:55 PM 103.1 °F - 51.4 °F 18% 29.82 in 10.0 mi NNE 4.6 mph - N/A   Clear
2:15 PM 104.2 °F - 51.3 °F 17% 29.82 in 10.0 mi ENE 9.2 mph - N/A   Clear
2:35 PM 104.5 °F - 51.3 °F 17% 29.81 in 10.0 mi NE 5.8 mph - N/A   Clear
2:55 PM 104.0 °F - 50.0 °F 16% 29.80 in 10.0 mi Calm Calm - N/A   Clear
3:15 PM 105.3 °F - 51.3 °F 16% 29.79 in 10.0 mi SE 5.8 mph - N/A   Clear
3:35 PM 104.5 °F - 50.0 °F 16% 29.78 in 10.0 mi WNW 4.6 mph - N/A   Clear
3:55 PM 105.4 °F - 51.1 °F 16% 29.77 in 10.0 mi South 10.4 mph 18.4 mph N/A   Clear
4:15 PM 107.2 °F - 48.9 °F 14% 29.76 in 10.0 mi East 9.2 mph - N/A   Clear
4:35 PM 106.0 °F - 49.3 °F 15% 29.75 in 10.0 mi SE 8.1 mph - N/A   Clear
4:55 PM 107.6 °F - 46.8 °F 13% 29.74 in 10.0 mi SE 4.6 mph 17.3 mph N/A   Clear
5:15 PM 107.2 °F - 49.3 °F 14% 29.74 in 10.0 mi South 4.6 mph 9.2 mph N/A   Clear
5:35 PM 107.1 °F - 46.2 °F 13% 29.73 in 10.0 mi Calm Calm - N/A   Clear
5:55 PM 107.4 °F - 44.8 °F 12% 29.73 in 10.0 mi East 6.9 mph - N/A   Scattered Clouds
6:15 PM 106.9 °F - 45.1 °F 13% 29.72 in 10.0 mi SE 8.1 mph 18.4 mph N/A   Scattered Clouds
6:35 PM 107.1 °F - 43.7 °F 12% 29.72 in 10.0 mi ESE 6.9 mph - N/A   Scattered Clouds
6:55 PM 106.7 °F - 43.9 °F 12% 29.73 in 10.0 mi ESE 8.1 mph 16.1 mph N/A   Clear
7:15 PM 105.3 °F - 46.0 °F 14% 29.73 in 10.0 mi SE 12.7 mph 21.9 mph N/A   Clear
7:35 PM 103.5 °F - 51.1 °F 17% 29.73 in 10.0 mi SE 6.9 mph - N/A   Clear
7:55 PM 102.2 °F - 50.9 °F 18% 29.73 in 10.0 mi SE 6.9 mph - N/A   Clear
8:15 PM 102.0 °F - 49.6 °F 17% 29.73 in 10.0 mi SE 4.6 mph - N/A   Clear
8:35 PM 99.9 °F - 50.4 °F 19% 29.74 in 10.0 mi SE 4.6 mph - N/A   Clear
8:55 PM 98.2 °F - 50.7 °F 20% 29.74 in 10.0 mi SE 5.8 mph - N/A   Clear
9:15 PM 96.8 °F - 51.4 °F 22% 29.74 in 10.0 mi SE 4.6 mph - N/A   Clear
9:35 PM 95.9 °F - 51.8 °F 22% 29.75 in 10.0 mi SE 6.9 mph - N/A   Clear
10:15 PM 94.3 °F 92.1 °F 54.7 °F 26% 29.76 in 10.0 mi SSE 5.8 mph - N/A   Clear
10:35 PM 93.6 °F 91.8 °F 55.4 °F 28% 29.77 in 10.0 mi SSE 4.6 mph - N/A   Clear
10:55 PM 92.5 °F 90.4 °F 55.4 °F 28% 29.78 in 10.0 mi SE 4.6 mph - N/A   Clear
11:15 PM 91.4 °F 89.6 °F 55.6 °F 30% 29.78 in 10.0 mi SE 6.9 mph - N/A   Clear
11:35 PM 91.4 °F 89.4 °F 55.4 °F 29% 29.77 in 10.0 mi SSE 9.2 mph - N/A   Clear
11:55 PM 91.0 °F 89.7 °F 57.6 °F 32% 29.77 in 10.0 mi SSE 8.1 mph - N/A   Clear